WetterOnline ( http://www.wetteronline.de )

Wetter aktuell Bonn

Aktuelles Wetter: Roleber (162m)

6-stündlich | Neueste Meldungen
Ortszeit Temperatur Wetter
Fr, 20.04. 2:00 15.5° C wolkig
Do, 19.04. 20:00 23.4° C leicht bewölkt
Do, 19.04. 14:00 25.8° C wolkenlos
Do, 19.04. 8:00 15.1° C wolkenlos
Do, 19.04. 2:00 14.5° C fast wolkenlos
Mi, 18.04. 20:00 21.1° C wolkenlos
Mi, 18.04. 14:00 23.5° C fast wolkenlos
Mi, 18.04. 8:00 10.1° C wolkenlos
Ortszeit Temperatur Wetter
Fr, 20.04. 4:30 13.1° C wolkig
Fr, 20.04. 4:20 13.1° C wolkig
Fr, 20.04. 4:10 12.9° C wolkig
Fr, 20.04. 4:00 12.1° C wolkig
Fr, 20.04. 3:50 12.1° C wolkig
Fr, 20.04. 3:40 12.8° C wolkig
Fr, 20.04. 3:30 13.8° C wolkig
Fr, 20.04. 3:00 14.1° C wolkig
Fr, 20.04. 2:30 15.2° C wolkig
Fr, 20.04. 2:00 15.5° C wolkig
Fr, 20.04. 1:30 15.0° C wolkig
Ortszeit Relative Feuchte Sichtweite
Fr, 20.04. 2:00 55% 65 km
Do, 19.04. 20:00 40% 50 km
Do, 19.04. 14:00 34% 40 km
Do, 19.04. 8:00 63% 19 km
Do, 19.04. 2:00 65% 40 km
Mi, 18.04. 20:00 43% 65 km
Mi, 18.04. 14:00 36% 30 km
Mi, 18.04. 8:00 84% 29 km
Ortszeit Relative Feuchte Sichtweite
Fr, 20.04. 4:30 66% 50 km
Fr, 20.04. 4:20 66% -
Fr, 20.04. 4:10 66% -
Fr, 20.04. 4:00 69% 50 km
Fr, 20.04. 3:50 69% -
Fr, 20.04. 3:40 66% -
Fr, 20.04. 3:30 60% 45 km
Fr, 20.04. 3:00 61% 55 km
Fr, 20.04. 2:30 55% 55 km
Fr, 20.04. 2:00 55% 65 km
Fr, 20.04. 1:30 57% 50 km
Ortszeit Niederschlagsmenge Niederschlagsart
Fr, 20.04. 2:00 0.0 l/m2 in 6 Std. -
Do, 19.04. 20:00 0.0 l/m2 in 12 Std. -
Do, 19.04. 14:00 0.0 l/m2 in 6 Std. -
Do, 19.04. 8:00 0.0 l/m2 in 12 Std. -
Do, 19.04. 2:00 0.0 l/m2 in 6 Std. -
Mi, 18.04. 20:00 0.0 l/m2 in 12 Std. -
Mi, 18.04. 14:00 0.0 l/m2 in 6 Std. -
Mi, 18.04. 8:00 0.0 l/m2 in 12 Std. -
Ortszeit Niederschlagsmenge Niederschlagsart
Fr, 20.04. 4:30 0.0 l/m2 in 1 Std. -
Fr, 20.04. 4:20 keine Meldung -
Fr, 20.04. 4:10 keine Meldung -
Fr, 20.04. 4:00 0.0 l/m2 in 1 Std. -
Fr, 20.04. 3:50 keine Meldung -
Fr, 20.04. 3:40 keine Meldung -
Fr, 20.04. 3:30 0.0 l/m2 in 1 Std. -
Fr, 20.04. 3:00 0.0 l/m2 in 1 Std. -
Fr, 20.04. 2:30 0.0 l/m2 in 1 Std. -
Fr, 20.04. 2:00 0.0 l/m2 in 1 Std. -
Fr, 20.04. 1:30 0.0 l/m2 in 1 Std. -
Ortszeit Stärke Spitze Richtung
km/h Bft. km/h Grad Sektor
Fr, 20.04. 2:00 7 2 18 100° O
Do, 19.04. 20:00 7 2 28 110° O
Do, 19.04. 14:00 14 3 32 120° SO
Do, 19.04. 8:00 17 3 24 120° SO
Do, 19.04. 2:00 9 2 19 110° O
Mi, 18.04. 20:00 11 2 24 140° SO
Mi, 18.04. 14:00 9 2 19 90° O
Mi, 18.04. 8:00 4 1 11 40° NO
Ortszeit Stärke Spitze Richtung
km/h Bft. km/h Grad Sektor
Fr, 20.04. 4:30 4 1 7 240° SW
Fr, 20.04. 4:20 4 1 - 240° SW
Fr, 20.04. 4:10 4 1 - 180° S
Fr, 20.04. 4:00 0 0 11 - -
Fr, 20.04. 3:50 0 0 - 130° SO
Fr, 20.04. 3:40 4 1 - 100° O
Fr, 20.04. 3:30 7 2 11 100° O
Fr, 20.04. 3:00 7 2 11 100° O
Fr, 20.04. 2:30 7 2 11 100° O
Fr, 20.04. 2:00 7 2 14 100° O
Fr, 20.04. 1:30 7 2 11 100° O
Ortszeit Untergrenze Bedeckung Gattung
total tief tief mittel hoch
Fr, 20.04. 2:00 12000 m 8/8 0/8 - - -
Do, 19.04. 20:00 10500 m 8/8 0/8 - - -
Do, 19.04. 14:00 10500 m 0/8 0/8 - - -
Do, 19.04. 8:00 - 0/8 0/8 - - -
Do, 19.04. 2:00 3000 m 1/8 1/8 - - -
Mi, 18.04. 20:00 - 0/8 0/8 - - -
Mi, 18.04. 14:00 10500 m 1/8 0/8 - - -
Mi, 18.04. 8:00 3000 m 0/8 0/8 - - -
Ortszeit Bedeckungsgrad in Achtel und Wolkenuntergrenze
Fr, 20.04. 4:30 8(10500m) 8(12000m)
Fr, 20.04. 4:20 8(10500m) 8(12000m)
Fr, 20.04. 4:10 8(10500m) 8(12000m)
Fr, 20.04. 4:00 8(10500m) 8(12000m)
Fr, 20.04. 3:50 8(10500m) 8(12000m)
Fr, 20.04. 3:40 7(10500m) 8(12000m)
Fr, 20.04. 3:30 7(10500m) 8(12000m)
Fr, 20.04. 3:00 5(10500m) 8(12000m)
Fr, 20.04. 2:30 8(12000m)
Fr, 20.04. 2:00 8(12000m)
Fr, 20.04. 1:30 8(12000m)
Ortszeit Luftdruck NN (hPa) Tendenz (hPa in 3 Std.)
Fr, 20.04. 2:00 1025 - 0,5
Do, 19.04. 20:00 1024 - 0,8
Do, 19.04. 14:00 1027 - 1,1
Do, 19.04. 8:00 1028 - 0,3
Do, 19.04. 2:00 1029 0,0
Mi, 18.04. 20:00 1029 - 0,8
Mi, 18.04. 14:00 1031 - 0,9
Mi, 18.04. 8:00 1031 + 1,4
Ortszeit Luftdruck NN (hPa) Tendenz (hPa in 3 Std.)
Fr, 20.04. 4:30 1025 - 0,6
Fr, 20.04. 4:20 1025 keine Meldung
Fr, 20.04. 4:10 1025 keine Meldung
Fr, 20.04. 4:00 1025 - 0,6
Fr, 20.04. 3:50 1025 keine Meldung
Fr, 20.04. 3:40 1025 keine Meldung
Fr, 20.04. 3:30 1025 - 0,6
Fr, 20.04. 3:00 1025 - 0,6
Fr, 20.04. 2:30 1025 - 0,6
Fr, 20.04. 2:00 1025 - 0,5
Fr, 20.04. 1:30 1025 - 0,5
Ortszeit Schneehöhe (cm)
Fr, 20.04. 2:00 0
Do, 19.04. 20:00 0
Do, 19.04. 14:00 0
Do, 19.04. 8:00 0
Do, 19.04. 2:00 0
Mi, 18.04. 20:00 0
Mi, 18.04. 14:00 0
Mi, 18.04. 8:00 0
Ortszeit Schneehöhe (cm)
Fr, 20.04. 4:30 0
Fr, 20.04. 4:20 0
Fr, 20.04. 4:10 0
Fr, 20.04. 4:00 0
Fr, 20.04. 3:50 0
Fr, 20.04. 3:40 0
Fr, 20.04. 3:30 0
Fr, 20.04. 3:00 0
Fr, 20.04. 2:30 0
Fr, 20.04. 2:00 0
Fr, 20.04. 1:30 0
Link zu dieser Seite / Seite empfehlen

Das Wetter in ...